Starlink 32367

operational
NORAD ID: 60919 Int'l Des: 2024-154 Owner: SPXS Country: US Constellation: starlink
LEOCIRCULAR

Starlink 32367について

説明を読み込み中...

リアルタイム位置

3D地球を読み込み中...

次回通過

高度履歴

Altitude vs Time

uPlot chart will show altitude changes over time

軌道要素

1 60919U 24154S 26034.42583117 -.00001217 00000-0 -28974-4 0 9994
2 60919 53.1584 82.6664 0001224 100.4973 259.6166 15.30186558 81093
Epoch: Feb 3, 2026 • Age: 22 hours

現在のステータス

高度 481.2 km
速度 7.62 km/s
衛星直下点 -19.67°S, 167.62°E
打ち上げ日 Aug 31, 2024
運用期間 1.4 years
タイプ internet

技術仕様

分類 Payload
質量 730.00 kg
乾燥質量 700.00 kg
総質量 730.00 kg
長さ 0.30 m
直径 4.10 m
スパン 29.00 m
形状 Box + pan
製造者 SPXS
バスタイプ Starlink V2M
フェーズステータス In Orbit
所有者/国 SPXS/US

大規模コンステレーション

Loading constellations...